K5NCO Weather Reports


Display with metric or nautical units.
time (UTC)temp
F
wind
direction
speed
MPH
gust
MPH
rain 1hr
in
rain 24hr
in
rain mn
in
humidity
%
barometer
mb
20260506072906 75 178 3.0 4.0 0.00 0.00 0.00 92 1009.8
20260506072403 75 178 3.0 4.0 0.00 0.00 0.00 92 1009.8
20260506071900 75 178 3.0 4.0 0.00 0.00 0.00 92 1009.8
20260506062411 75 210 6.0 15.0 0.00 0.00 0.00 92 1009.8
20260506061906 75 135 11.0 15.0 0.00 0.00 0.00 92 1009.8
20260506061403 75 190 5.0 8.0 0.00 0.00 0.00 92 1009.6
20260506060901 75 189 6.0 9.0 0.00 0.00 0.00 92 1009.6
20260506060359 75 191 9.0 11.0 0.00 0.00 0.00 92 1009.7
20260506051331 76 173 8.0 10.0 0.00 0.00 0.00 91 1010.0
20260506050828 76 146 5.0 7.0 0.00 0.00 0.00 91 1009.9
20260506050325 76 56 6.0 10.0 0.00 0.00 0.00 91 1009.9
20260506044816 76 193 6.0 8.0 0.00 0.00 0.00 92 1009.8
20260506044314 76 140 4.0 7.0 0.00 0.00 0.00 92 1009.8
20260506043810 76 157 6.0 11.0 0.00 0.00 0.00 92 1009.9
20260506043308 76 148 7.0 9.0 0.00 0.00 0.00 92 1009.8
20260506042806 76 157 4.0 4.0 0.00 0.00 0.00 91 1009.8
20260506042305 76 127 5.0 6.0 0.00 0.00 0.00 91 1009.8
20260506041803 76 115 7.0 9.0 0.00 0.00 0.00 91 1009.8
20260506041259 76 206 5.0 7.0 0.00 0.00 0.00 91 1009.7
20260506040757 76 160 4.0 6.0 0.00 0.00 0.00 91 1009.7
20260506040254 76 154 3.0 4.0 0.00 0.00 0.00 90 1009.7
20260506035751 77 138 5.0 6.0 0.00 0.00 0.00 90 1009.6
20260506035248 77 196 7.0 10.0 0.00 0.00 0.00 89 1009.4
20260506034744 77 123 5.0 7.0 0.00 0.00 0.00 89 1009.5
20260506034242 77 131 9.0 13.0 0.00 0.00 0.00 89 1009.4
20260506033739 77 149 6.0 8.0 0.00 0.00 0.00 89 1009.4
20260506033236 77 199 4.0 6.0 0.00 0.00 0.00 89 1009.4
20260506032733 77 150 5.0 6.0 0.00 0.00 0.00 89 1009.4
20260506032229 77 157 4.0 6.0 0.00 0.00 0.00 89 1009.3
20260506031726 77 107 6.0 9.0 0.00 0.00 0.00 88 1009.1
20260506031224 77 94 5.0 7.0 0.00 0.00 0.00 88 1009.3
20260506030722 77 128 2.0 2.0 0.00 0.00 0.00 88 1009.2
20260506030219 77 112 7.0 9.0 0.00 0.00 0.00 88 1008.9
20260506025716 78 132 10.0 13.0 0.00 0.00 0.00 87 1009.1
20260506025212 78 172 5.0 6.0 0.00 0.00 0.00 87 1008.9
20260506024709 78 83 3.0 4.0 0.00 0.00 0.00 86 1008.9
20260506024205 78 138 3.0 4.0 0.00 0.00 0.00 86 1008.9
20260506023702 78 130 2.0 3.0 0.00 0.00 0.00 85 1008.7
20260506023200 79 151 4.0 7.0 0.00 0.00 0.00 84 1008.5
20260506022656 79 188 4.0 6.0 0.00 0.00 0.00 83 1008.4
20260506022154 79 95 2.0 3.0 0.00 0.00 0.00 83 1008.2
20260506021652 79 186 3.0 3.0 0.00 0.00 0.00 83 1008.2
20260506021148 79 117 1.0 1.0 0.00 0.00 0.00 83 1008.3
20260506020640 79 146 6.0 7.0 0.00 0.00 0.00 82 1008.1
20260506020137 79 133 3.0 6.0 0.00 0.00 0.00 82 1007.9
20260506015635 80 117 4.0 6.0 0.00 0.00 0.00 82 1007.9
20260506015132 80 126 4.0 6.0 0.00 0.00 0.00 82 1007.8
20260506014630 80 80 4.0 4.0 0.00 0.00 0.00 82 1007.8
20260506014125 80 134 2.0 3.0 0.00 0.00 0.00 82 1007.8
20260506013623 80 98 5.0 7.0 0.00 0.00 0.00 81 1007.7
20260506013119 80 162 2.0 2.0 0.00 0.00 0.00 81 1007.8
20260506012615 80 106 1.0 2.0 0.00 0.00 0.00 80 1007.8
20260506012112 80 163 2.0 3.0 0.00 0.00 0.00 80 1007.7
20260506011610 80 135 4.0 4.0 0.00 0.00 0.00 80 1007.6
20260506011106 81 175 4.0 6.0 0.00 0.00 0.00 79 1007.7
20260506010600 81 97 3.0 4.0 0.00 0.00 0.00 79 1007.9
20260506010056 81 122 4.0 6.0 0.00 0.00 0.00 79 1007.6
20260506005554 81 111 3.0 4.0 0.00 0.00 0.00 79 1007.8
20260506005049 81 128 6.0 7.0 0.00 0.00 0.00 78 1007.6
20260506004547 81 159 4.0 7.0 0.00 0.00 0.00 78 1007.5
20260506004043 82 129 4.0 4.0 0.00 0.00 0.00 78 1007.6
20260506003540 82 140 3.0 4.0 0.00 0.00 0.00 77 1007.7
20260506003036 82 164 4.0 7.0 0.00 0.00 0.00 77 1007.6
20260506002532 82 145 3.0 4.0 0.00 0.00 0.00 77 1007.7
20260506002028 82 167 9.0 10.0 0.00 0.00 0.00 77 1007.6
20260506001525 82 128 4.0 6.0 0.00 0.00 0.00 77 1007.6
20260506001022 82 125 3.0 3.0 0.00 0.00 0.00 77 1007.8
20260506000520 82 161 6.0 8.0 0.00 0.00 0.00 76 1007.7
20260506000017 82 159 7.0 9.0 0.00 0.00 0.00 76 1007.5
20260505235515 82 168 7.0 8.0 0.00 0.00 0.00 75 1007.7
20260505235011 82 182 4.0 6.0 0.00 0.00 0.00 76 1007.5
20260505234508 82 188 6.0 9.0 0.00 0.00 0.00 76 1007.6
20260505234005 82 170 6.0 7.0 0.00 0.00 0.00 75 1007.3
20260505233503 82 125 5.0 8.0 0.00 0.00 0.00 76 1007.3
20260505233000 82 138 8.0 9.0 0.00 0.00 0.00 75 1007.2
20260505232458 82 129 9.0 13.0 0.00 0.00 0.00 75 1007.1
20260505231954 83 72 4.0 6.0 0.00 0.00 0.00 75 1007.0
20260505231451 83 181 4.0 8.0 0.00 0.00 0.00 74 1007.3
20260505230949 83 183 7.0 8.0 0.00 0.00 0.00 73 1007.4
20260505230442 83 204 9.0 10.0 0.00 0.00 0.00 74 1007.2
20260505225938 83 169 7.0 10.0 0.00 0.00 0.00 75 1007.1
20260505225435 84 107 8.0 10.0 0.00 0.00 0.00 74 1007.1
20260505224931 83 197 4.0 4.0 0.00 0.00 0.00 73 1007.0
20260505224428 83 109 4.0 7.0 0.00 0.00 0.00 74 1007.1
20260505223925 83 150 4.0 4.0 0.00 0.00 0.00 73 1007.2
20260505223422 83 160 7.0 10.0 0.00 0.00 0.00 74 1007.1
20260505222918 83 185 8.0 9.0 0.00 0.00 0.00 74 1007.1
20260505222415 83 126 6.0 9.0 0.00 0.00 0.00 74 1006.9
20260505221910 83 166 7.0 10.0 0.00 0.00 0.00 74 1006.8
20260505221408 83 114 9.0 10.0 0.00 0.00 0.00 74 1007.2
20260505220905 83 101 8.0 10.0 0.00 0.00 0.00 74 1007.1
20260505220402 83 189 11.0 14.0 0.00 0.00 0.00 74 1007.2
20260505215900 84 142 9.0 11.0 0.00 0.00 0.00 71 1007.4
20260505215357 84 164 4.0 6.0 0.00 0.00 0.00 72 1007.4
20260505214855 84 201 9.0 9.0 0.00 0.00 0.00 71 1007.3
20260505214352 83 159 12.0 14.0 0.00 0.00 0.00 71 1007.6
20260505213849 83 174 10.0 10.0 0.00 0.00 0.00 72 1007.7
20260505213347 83 188 9.0 10.0 0.00 0.00 0.00 72 1007.4
20260505212843 83 207 9.0 11.0 0.00 0.00 0.00 72 1007.6
20260505212340 83 187 7.0 9.0 0.00 0.00 0.00 72 1007.6
20260505211836 83 172 11.0 13.0 0.00 0.00 0.00 72 1007.8
20260505211334 82 143 6.0 8.0 0.00 0.00 0.00 74 1007.9
20260505210830 82 183 11.0 14.0 0.00 0.00 0.00 74 1007.7
20260505210327 82 99 11.0 13.0 0.00 0.00 0.00 73 1007.8
20260505205824 82 101 8.0 11.0 0.00 0.00 0.00 75 1008.0
20260505205323 82 188 11.0 15.0 0.00 0.00 0.00 74 1008.1
20260505204819 82 147 12.0 14.0 0.00 0.00 0.00 74 1008.0
20260505204317 81 171 6.0 8.0 0.00 0.00 0.00 76 1007.9
20260505203814 81 142 11.0 13.0 0.00 0.00 0.00 75 1008.2
20260505203311 82 153 10.0 15.0 0.00 0.00 0.00 76 1008.2
20260505202807 82 115 6.0 9.0 0.00 0.00 0.00 75 1008.5
20260505202306 81 114 7.0 14.0 0.00 0.00 0.00 76 1008.4
20260505201800 82 194 10.0 11.0 0.00 0.00 0.00 76 1008.7
20260505201257 82 90 7.0 10.0 0.00 0.00 0.00 75 1008.8
20260505200756 82 146 8.0 10.0 0.00 0.00 0.00 76 1008.7
20260505200252 81 169 7.0 9.0 0.00 0.00 0.00 76 1008.5
20260505195747 82 180 9.0 16.0 0.00 0.00 0.00 74 1008.9
20260505195245 82 232 9.0 11.0 0.00 0.00 0.00 76 1009.0
20260505194742 81 153 8.0 10.0 0.00 0.00 0.00 77 1008.9
20260505194239 81 130 5.0 8.0 0.00 0.00 0.00 77 1009.2
20260505193734 81 199 10.0 10.0 0.00 0.00 0.00 76 1009.4
20260505193232 80 139 8.0 10.0 0.00 0.00 0.00 77 1009.4
20260505192730 80 204 10.0 13.0 0.00 0.00 0.00 77 1009.1
20260505192228 80 156 8.0 11.0 0.00 0.00 0.00 78 1009.2
20260505191726 79 201 9.0 10.0 0.00 0.00 0.00 79 1009.2
20260505191224 79 190 11.0 13.0 0.00 0.00 0.00 78 1009.5
20260505190720 79 175 5.0 6.0 0.00 0.00 0.00 80 1009.4
20260505190220 78 162 5.0 7.0 0.00 0.00 0.00 79 1009.5
20260505185716 79 155 3.0 4.0 0.00 0.00 0.00 79 1009.4
20260505185213 78 199 5.0 7.0 0.00 0.00 0.00 80 1009.6
20260505184709 78 184 9.0 10.0 0.00 0.00 0.00 79 1009.7
20260505184207 78 199 3.0 6.0 0.00 0.00 0.00 81 1009.8
20260505183703 78 124 3.0 4.0 0.00 0.00 0.00 81 1009.7
20260505183201 78 199 8.0 11.0 0.00 0.00 0.00 81 1009.6
20260505182656 78 205 9.0 13.0 0.00 0.00 0.00 81 1009.9
20260505182154 78 211 8.0 10.0 0.00 0.00 0.00 81 1009.8
20260505181650 78 192 10.0 13.0 0.00 0.00 0.00 81 1009.9
20260505181148 77 148 5.0 6.0 0.00 0.00 0.00 82 1010.0
20260505180644 77 204 4.0 6.0 0.00 0.00 0.00 82 1010.1
20260505180142 77 191 6.0 8.0 0.00 0.00 0.00 82 1010.2
20260505175637 77 185 6.0 9.0 0.00 0.00 0.00 83 1010.2
20260505175134 77 184 4.0 4.0 0.00 0.00 0.00 83 1010.3
20260505174631 77 111 4.0 4.0 0.00 0.00 0.00 83 1010.4
20260505174127 76 192 5.0 9.0 0.00 0.00 0.00 83 1010.2
20260505173624 76 175 6.0 8.0 0.00 0.00 0.00 84 1010.4
20260505173120 75 194 8.0 13.0 0.00 0.00 0.00 84 1010.4
20260505172618 75 192 9.0 10.0 0.00 0.00 0.00 85 1010.4
20260505172114 75 164 8.0 11.0 0.00 0.00 0.00 85 1010.5
20260505171609 75 215 8.0 9.0 0.00 0.00 0.00 86 1010.4
20260505171107 75 196 11.0 13.0 0.00 0.00 0.00 86 1010.6
20260505170603 75 221 10.0 10.0 0.00 0.00 0.00 86 1010.6
20260505170100 75 182 9.0 13.0 0.00 0.00 0.00 86 1010.5
20260505165554 74 179 12.0 14.0 0.00 0.00 0.00 87 1010.4
20260505165050 74 185 11.0 14.0 0.00 0.00 0.00 87 1010.5
20260505164541 74 202 6.0 9.0 0.00 0.00 0.00 88 1010.4
20260505164039 73 159 4.0 6.0 0.00 0.00 0.00 89 1010.5
20260505163537 73 186 6.0 7.0 0.00 0.00 0.00 89 1010.6
20260505163033 73 199 9.0 10.0 0.00 0.00 0.00 90 1010.4
20260505162526 73 185 6.0 8.0 0.00 0.00 0.00 90 1010.4
20260505162024 73 199 4.0 6.0 0.00 0.00 0.00 90 1010.3
20260505161520 73 194 11.0 13.0 0.00 0.00 0.00 90 1010.2
20260505161017 73 220 6.0 8.0 0.00 0.00 0.00 90 1010.5
20260505160515 72 150 6.0 8.0 0.00 0.00 0.00 91 1010.5
20260505152952 72 185 6.0 9.0 0.00 0.00 0.00 91 1010.6
20260505152449 72 195 6.0 8.0 0.00 0.00 0.00 91 1010.6
20260505151944 72 169 4.0 7.0 0.00 0.00 0.00 91 1010.5
20260505151440 72 153 6.0 8.0 0.00 0.00 0.00 91 1010.6
20260505150937 72 204 6.0 8.0 0.00 0.00 0.00 91 1010.5
20260505150434 72 150 6.0 7.0 0.00 0.00 0.00 92 1010.4
20260505140404 71 201 9.0 10.0 0.00 0.00 0.00 92 1010.0
20260505124818 70 155 8.0 9.0 0.00 0.00 0.00 92 1009.3
20260505124315 70 203 12.0 15.0 0.00 0.00 0.00 92 1009.2
20260505123810 70 218 8.0 10.0 0.00 0.00 0.00 92 1009.1
20260505123308 70 131 9.0 14.0 0.00 0.00 0.00 92 1009.0
20260505122803 70 202 11.0 14.0 0.00 0.00 0.00 92 1009.1
20260505122301 70 154 6.0 7.0 0.00 0.00 0.00 92 1008.9
20260505121757 70 176 11.0 13.0 0.00 0.00 0.00 92 1009.0
20260505121254 70 168 6.0 8.0 0.00 0.00 0.00 92 1008.9
20260505120750 70 190 14.0 16.0 0.00 0.00 0.00 92 1008.8
20260505120247 70 179 9.0 10.0 0.00 0.00 0.00 92 1008.4
20260505115745 70 183 13.0 16.0 0.00 0.00 0.00 91 1008.3
20260505115243 70 199 7.0 9.0 0.00 0.00 0.00 92 1008.4
20260505114740 70 188 8.0 11.0 0.00 0.00 0.00 92 1008.4
20260505114236 70 203 10.0 15.0 0.00 0.00 0.00 91 1008.7
20260505113733 70 189 8.0 9.0 0.00 0.00 0.00 91 1008.4
20260505113230 70 154 6.0 8.0 0.00 0.00 0.00 91 1008.9
20260505112726 70 217 10.0 15.0 0.00 0.00 0.00 91 1008.7
20260505112224 70 208 7.0 9.0 0.00 0.00 0.00 91 1008.4
20260505111723 70 199 9.0 11.0 0.00 0.00 0.00 91 1008.4
20260505111220 70 206 8.0 11.0 0.00 0.00 0.00 91 1008.5
20260505110715 70 165 9.0 13.0 0.00 0.00 0.00 91 1008.4
20260505110213 70 193 9.0 11.0 0.00 0.00 0.00 91 1008.7